User: anonymous   Login
Location: Caltech
(34.1382°N, 118.1253°W)
Time: 05:06:31
(UTC-07:00)
Language:

OPAL - Orbit

View from above orbital plane
View from above orbital plane
View from above satellite
View from above satellite

Ground track
Ground track

The orbit data is extracted from the following two-line orbital elements,

1 26063U 00004C   17172.95523058 -.00000016 +00000-0 +14871-4 0  9999
2 26063 100.2283 177.4452 0035794 295.7380 064.0107 14.36666025911869
Epoch (UTC): 21 June 2017 22:55:31
Eccentricity: 0.0035794
inclination: 100.2283°
perigee height: 744 km
apogee height: 795 km
right ascension of ascending node: 177.4452°
argument of perigee: 295.7380°
revolutions per day: 14.36666025
mean anomaly at epoch: 64.0107°
orbit number at epoch: 91186

The dashed part of the orbit path shows where the satellite is in the earth's shadow,  

DLR